CW2857 Weather Reports


time (UTC)temp
F
wind
direction
speed
knots
gust
knots
rain 1hr
in
rain 24hr
in
rain mn
in
humidity
%
barometer
mb
20260903111038 57 355 0.0 9.6 0.00 0.00 0.00 36 1020.8
20260903110538 57 135 2.6 9.6 0.00 0.00 0.00 36 1020.8
20260903110043 56 160 0.0 7.8 0.00 0.00 0.00 36 1020.8
20260903105540 58 74 0.0 7.8 0.00 0.00 0.00 34 1020.8
20260903105037 59 184 3.5 7.8 0.00 0.00 0.00 35 1020.8
20260903104538 59 158 0.9 7.8 0.00 0.00 0.00 35 1020.9
20260903104036 58 205 3.5 7.8 0.00 0.00 0.00 37 1020.8
20260903103535 56 173 1.7 7.8 0.00 0.00 0.00 39 1020.8
20260903103044 55 38 0.0 3.5 0.00 0.00 0.00 38 1020.8
20260903102533 55 101 0.0 4.3 0.00 0.00 0.00 37 1020.9
20260903102035 56 47 0.0 4.3 0.00 0.00 0.00 36 1020.8
20260903101541 57 35 0.0 2.6 0.00 0.00 0.00 34 1020.8
20260903101033 58 121 0.0 1.7 0.00 0.00 0.00 34 1020.8
20260903100533 58 180 0.0 5.2 0.00 0.00 0.00 34 1020.7
20260903100037 58 209 1.7 7.0 0.00 0.00 0.00 34 1020.6
20260903095531 58 182 3.5 7.8 0.00 0.00 0.00 34 1020.6
20260903095030 58 239 4.3 7.8 0.00 0.00 0.00 34 1020.5
20260903094531 58 188 2.6 6.1 0.00 0.00 0.00 34 1020.5
20260903094028 58 215 2.6 6.1 0.00 0.00 0.00 34 1020.7
20260903093534 58 188 2.6 6.1 0.00 0.00 0.00 33 1020.8
20260903093055 58 227 2.6 7.0 0.00 0.00 0.00 34 1020.8
20260903092529 58 192 4.3 7.0 0.00 0.00 0.00 34 1020.9
20260903092026 57 235 3.5 7.0 0.00 0.00 0.00 33 1021.0
20260903091525 57 223 0.9 4.3 0.00 0.00 0.00 33 1021.1
20260903091024 57 202 0.9 5.2 0.00 0.00 0.00 33 1021.2
20260903090524 57 205 0.9 5.2 0.00 0.00 0.00 33 1021.3
20260903090024 57 214 0.0 3.5 0.00 0.00 0.00 32 1021.3
20260903085522 58 227 0.0 3.5 0.00 0.00 0.00 32 1021.2
20260903085021 58 232 0.0 3.5 0.00 0.00 0.00 32 1021.3
20260903084521 58 223 0.0 3.5 0.00 0.00 0.00 32 1021.3
20260903084021 58 203 0.0 3.5 0.00 0.00 0.00 32 1021.3
20260903083521 58 216 0.0 3.5 0.00 0.00 0.00 31 1021.4
20260903083021 59 200 0.0 3.5 0.00 0.00 0.00 31 1021.3
20260903082522 58 210 0.9 3.5 0.00 0.00 0.00 32 1021.3
20260903082020 58 208 0.0 2.6 0.00 0.00 0.00 33 1021.4
20260903081529 57 167 0.0 0.9 0.00 0.00 0.00 34 1021.5
20260903081025 57 183 0.0 0.0 0.00 0.00 0.00 36 1021.6
20260903080524 56 182 0.0 0.0 0.00 0.00 0.00 37 1021.6
20260903080019 57 22 0.0 0.0 0.00 0.00 0.00 37 1021.6
20260903075518 57 22 0.0 0.0 0.00 0.00 0.00 37 1021.6
20260903075021 57 92 0.0 1.7 0.00 0.00 0.00 37 1021.6
20260903074517 58 28 0.0 3.5 0.00 0.00 0.00 36 1021.5
20260903074015 58 5 0.0 3.5 0.00 0.00 0.00 35 1021.5
20260903073514 58 9 0.9 3.5 0.00 0.00 0.00 34 1021.4
20260903073014 58 277 0.0 2.6 0.00 0.00 0.00 33 1021.3
20260903072513 58 211 0.0 0.9 0.00 0.00 0.00 33 1021.3
20260903072013 58 196 0.0 0.0 0.00 0.00 0.00 35 1021.3
20260903071015 58 209 0.9 5.2 0.00 0.00 0.00 34 1021.4
20260903070517 58 34 1.7 5.2 0.00 0.00 0.00 34 1021.3
20260903070010 59 18 0.0 0.0 0.00 0.00 0.00 34 1021.4
20260903065510 59 65 0.0 3.5 0.00 0.00 0.00 32 1021.2
20260903065010 60 147 0.0 5.2 0.00 0.00 0.00 30 1021.1
20260903064510 60 248 0.9 7.0 0.00 0.00 0.00 30 1020.9
20260903064009 60 251 1.7 6.1 0.00 0.00 0.00 29 1020.9
20260903063512 61 244 0.0 8.7 0.00 0.00 0.00 28 1020.8
20260903063011 61 202 2.6 8.7 0.00 0.00 0.00 28 1020.8
20260903062510 61 220 3.5 7.0 0.00 0.00 0.00 29 1020.8
20260903062010 60 194 0.9 4.3 0.00 0.00 0.00 30 1020.8
20260903061508 60 174 0.0 3.5 0.00 0.00 0.00 31 1020.8
20260903061010 61 203 0.0 7.0 0.00 0.00 0.00 30 1020.8
20260903060508 61 216 1.7 7.0 0.00 0.00 0.00 30 1020.8
20260903060014 61 188 2.6 8.7 0.00 0.00 0.00 32 1020.8
20260903055510 61 192 4.3 11.3 0.00 0.00 0.00 32 1020.8
20260903055008 61 230 5.2 11.3 0.00 0.00 0.00 32 1020.9
20260903054508 61 198 4.3 8.7 0.00 0.00 0.00 32 1021.0
20260903054008 61 188 4.3 8.7 0.00 0.00 0.00 32 1021.1
20260903053506 61 186 4.3 9.6 0.00 0.00 0.00 32 1021.2
20260903053007 61 234 3.5 7.0 0.00 0.00 0.00 33 1021.3
20260903052506 61 214 3.5 6.1 0.00 0.00 0.00 32 1021.4
20260903052006 61 230 2.6 6.1 0.00 0.00 0.00 32 1021.6
20260903051506 61 195 1.7 7.0 0.00 0.00 0.00 32 1021.6
20260903051005 61 192 0.0 4.3 0.00 0.00 0.00 32 1021.6
20260903050507 61 215 0.0 4.3 0.00 0.00 0.00 31 1021.6
20260903050006 62 206 0.0 7.8 0.00 0.00 0.00 31 1021.6
20260903045505 62 221 1.7 7.8 0.00 0.00 0.00 31 1021.6
20260903045005 62 223 0.9 7.0 0.00 0.00 0.00 31 1021.6
20260903044508 62 191 2.6 7.8 0.00 0.00 0.00 30 1021.6
20260903044005 62 205 1.7 8.7 0.00 0.00 0.00 30 1021.7
20260903043505 62 240 0.0 9.6 0.00 0.00 0.00 30 1021.7
20260903043004 62 234 1.7 12.2 0.00 0.00 0.00 30 1021.6
20260903042504 62 253 1.7 12.2 0.00 0.00 0.00 30 1021.5
20260903042007 62 211 0.0 5.2 0.00 0.00 0.00 30 1021.5
20260903041510 62 252 0.0 5.2 0.00 0.00 0.00 29 1021.5
20260903041004 62 216 0.0 8.7 0.00 0.00 0.00 29 1021.5
20260903040504 62 261 0.9 8.7 0.00 0.00 0.00 29 1021.5
20260903040004 62 236 0.0 2.6 0.00 0.00 0.00 28 1021.5
20260903035502 63 240 0.0 2.6 0.00 0.00 0.00 28 1021.5
20260903035003 63 217 0.0 7.0 0.00 0.00 0.00 27 1021.4
20260903034503 63 261 0.0 7.0 0.00 0.00 0.00 28 1021.4
20260903034003 64 248 0.0 7.0 0.00 0.00 0.00 28 1021.3
20260903033505 64 273 0.0 7.8 0.00 0.00 0.00 27 1021.2
20260903033002 64 245 4.3 8.7 0.00 0.00 0.00 27 1021.2
20260903032502 64 243 3.5 8.7 0.00 0.00 0.00 26 1021.2
20260903032001 65 261 2.6 8.7 0.00 0.00 0.00 25 1021.0
20260903031501 65 244 3.5 8.7 0.00 0.00 0.00 25 1020.9
20260903031002 65 209 5.2 9.6 0.00 0.00 0.00 25 1020.9
20260903030502 65 221 4.3 9.6 0.00 0.00 0.00 26 1020.9
20260903030002 65 196 2.6 10.4 0.00 0.00 0.00 26 1020.8
20260903025600 66 185 3.5 10.4 0.00 0.00 0.00 25 1020.8
20260903025102 66 236 0.9 8.7 0.00 0.00 0.00 24 1020.6
20260903024600 66 245 4.3 12.2 0.00 0.00 0.00 24 1020.5
20260903024100 66 230 6.1 12.2 0.00 0.00 0.00 24 1020.4
20260903023600 66 259 4.3 12.2 0.00 0.00 0.00 24 1020.4
20260903023101 66 200 3.5 12.2 0.00 0.00 0.00 24 1020.3
20260903022600 66 215 6.1 13.0 0.00 0.00 0.00 24 1020.3
20260903022100 67 235 5.2 13.0 0.00 0.00 0.00 24 1020.3
20260903021559 67 263 6.1 11.3 0.00 0.00 0.00 25 1020.3
20260903021059 67 257 7.8 11.3 0.00 0.00 0.00 24 1020.3
20260903020558 67 233 7.8 13.0 0.00 0.00 0.00 23 1020.3
20260903015558 68 176 8.7 12.2 0.00 0.00 0.00 21 1020.0
20260903015058 68 215 5.2 14.8 0.00 0.00 0.00 21 1020.0
20260903014623 69 252 7.8 14.8 0.00 0.00 0.00 20 1020.0
20260903014101 69 227 6.1 12.2 0.00 0.00 0.00 19 1020.0
20260903013557 70 190 7.8 11.3 0.00 0.00 0.00 19 1019.9
20260903013107 70 223 4.3 9.6 0.00 0.00 0.00 19 1020.0
20260903012556 70 190 7.0 13.0 0.00 0.00 0.00 19 1020.0
20260903012056 70 181 5.2 15.6 0.00 0.00 0.00 18 1020.0
20260903011556 70 209 8.7 16.5 0.00 0.00 0.00 18 1020.0
20260903011055 70 209 8.7 16.5 0.00 0.00 0.00 17 1020.1
20260903010556 71 223 7.8 13.0 0.00 0.00 0.00 17 1020.1
20260903010056 71 216 8.7 14.8 0.00 0.00 0.00 19 1020.1
20260903005555 71 203 7.0 13.0 0.00 0.00 0.00 18 1020.0
20260903005056 71 186 9.6 14.8 0.00 0.00 0.00 18 1020.0
20260903004559 72 197 8.7 14.8 0.00 0.00 0.00 17 1020.0
20260903004055 72 187 7.8 15.6 0.00 0.00 0.00 17 1020.0
20260903003555 71 242 7.0 17.4 0.00 0.00 0.00 17 1020.0
20260903003108 72 238 9.6 17.4 0.00 0.00 0.00 17 1020.1
20260903002555 72 232 7.8 16.5 0.00 0.00 0.00 16 1020.1
20260903002055 72 210 9.6 16.5 0.00 0.00 0.00 16 1020.1
20260903001554 72 246 8.7 14.8 0.00 0.00 0.00 16 1020.1
20260903001053 71 221 8.7 17.4 0.00 0.00 0.00 16 1020.0
20260903000553 71 194 9.6 17.4 0.00 0.00 0.00 17 1020.0
20260902235553 71 243 11.3 19.1 0.00 0.00 0.00 16 1020.0
20260902235055 72 234 8.7 19.1 0.00 0.00 0.00 16 1020.1
20260902234553 72 192 9.6 18.2 0.00 0.00 0.00 16 1020.0
20260902234056 73 193 9.6 16.5 0.00 0.00 0.00 17 1019.9
20260902233553 72 228 5.2 16.5 0.00 0.00 0.00 19 1019.8
20260902233052 72 190 7.0 14.8 0.00 0.00 0.00 19 1019.8
20260902232552 72 194 7.8 14.8 0.00 0.00 0.00 20 1019.9
20260902232051 72 245 7.8 18.2 0.00 0.00 0.00 19 1019.9
20260902231551 72 187 8.7 18.2 0.00 0.00 0.00 19 1020.0
20260902231051 73 198 8.7 17.4 0.00 0.00 0.00 19 1019.9
20260902230550 73 185 7.0 15.6 0.00 0.00 0.00 17 1019.9
20260902230054 74 240 5.2 20.9 0.00 0.00 0.00 17 1020.0
20260902225552 73 277 9.6 20.9 0.00 0.00 0.00 18 1020.0
20260902225048 73 181 4.3 13.0 0.00 0.00 0.00 18 1020.0
20260902224605 73 229 6.1 15.6 0.00 0.00 0.00 18 1020.1
20260902224046 72 198 8.7 19.1 0.00 0.00 0.00 20 1019.9
20260902223547 72 249 7.0 19.1 0.00 0.00 0.00 19 1020.1
20260902223047 72 196 8.7 13.9 0.00 0.00 0.00 20 1020.2
20260902222543 71 222 7.8 15.6 0.00 0.00 0.00 21 1020.2
20260902222043 70 182 10.4 17.4 0.00 0.00 0.00 21 1020.3
20260902221544 71 202 8.7 17.4 0.00 0.00 0.00 21 1020.3
20260902221043 71 233 7.8 20.0 0.00 0.00 0.00 22 1020.4
20260902220544 69 227 9.6 20.0 0.00 0.00 0.00 23 1020.5
20260902220043 69 203 10.4 17.4 0.00 0.00 0.00 22 1020.5
20260902215541 70 192 9.6 20.0 0.00 0.00 0.00 23 1020.6
20260902215045 70 186 7.0 19.1 0.00 0.00 0.00 23 1020.6
20260902214608 70 233 9.6 19.1 0.00 0.00 0.00 23 1020.6
20260902214042 70 207 9.6 17.4 0.00 0.00 0.00 23 1020.6
20260902213541 70 231 7.0 20.9 0.00 0.00 0.00 22 1020.7
20260902213042 70 219 7.0 18.2 0.00 0.00 0.00 22 1020.5
20260902212540 70 189 7.8 20.0 0.00 0.00 0.00 23 1020.7
20260902212041 71 216 10.4 20.0 0.00 0.00 0.00 23 1020.6
20260902211539 70 192 8.7 19.1 0.00 0.00 0.00 23 1020.6
20260902211038 69 202 9.6 15.6 0.00 0.00 0.00 24 1020.6
20260902210539 69 248 9.6 15.6 0.00 0.00 0.00 24 1020.7
20260902210041 69 245 8.7 14.8 0.00 0.00 0.00 25 1020.7
20260902205537 69 219 8.7 16.5 0.00 0.00 0.00 25 1020.7
20260902205036 69 238 4.3 10.4 0.00 0.00 0.00 26 1020.7
20260902204535 68 171 0.9 10.4 0.00 0.00 0.00 27 1020.8
20260902204034 68 189 4.3 10.4 0.00 0.00 0.00 27 1020.8
20260902203534 67 190 3.5 10.4 0.00 0.00 0.00 27 1020.8
20260902203035 68 183 5.2 10.4 0.00 0.00 0.00 27 1020.8
20260902202535 68 209 4.3 9.6 0.00 0.00 0.00 28 1020.9
20260902202033 68 197 3.5 9.6 0.00 0.00 0.00 28 1021.0
20260902201536 67 211 1.7 8.7 0.00 0.00 0.00 28 1021.0
20260902201031 66 188 0.9 4.3 0.00 0.00 0.00 27 1021.1
20260902200530 66 201 0.0 7.8 0.00 0.00 0.00 28 1021.1
20260902200030 66 211 0.9 7.8 0.00 0.00 0.00 28 1021.2
20260902195529 66 210 3.5 7.8 0.00 0.00 0.00 28 1021.2
20260902195030 66 246 0.9 7.0 0.00 0.00 0.00 27 1021.2
20260902194537 66 269 0.0 6.1 0.00 0.00 0.00 27 1021.3
20260902194027 65 274 1.7 8.7 0.00 0.00 0.00 28 1021.4
20260902193527 64 348 0.0 3.5 0.00 0.00 0.00 28 1021.5
20260902193025 64 227 0.0 2.6 0.00 0.00 0.00 29 1021.5
20260902192525 64 313 0.0 7.0 0.00 0.00 0.00 29 1021.4
20260902192027 64 196 2.6 7.0 0.00 0.00 0.00 29 1021.6
20260902191524 63 207 0.0 6.1 0.00 0.00 0.00 29 1021.5
20260902191024 64 210 0.9 6.1 0.00 0.00 0.00 29 1021.6
20260902190524 63 264 0.0 6.1 0.00 0.00 0.00 30 1021.6
20260902190024 63 286 0.0 7.8 0.00 0.00 0.00 30 1021.7
20260902185524 63 258 2.6 7.8 0.00 0.00 0.00 30 1021.7
20260902185028 63 226 0.0 7.0 0.00 0.00 0.00 30 1021.7
20260902184522 63 252 1.7 7.0 0.00 0.00 0.00 30 1021.8
20260902184022 62 296 0.0 7.8 0.00 0.00 0.00 30 1021.7
20260902183522 62 254 0.0 7.8 0.00 0.00 0.00 30 1021.8
20260902183022 63 344 0.0 7.0 0.00 0.00 0.00 29 1021.8
20260902182520 63 220 2.6 11.3 0.00 0.00 0.00 28 1021.7
20260902182021 63 188 6.1 12.2 0.00 0.00 0.00 28 1021.8
20260902181521 62 115 2.6 11.3 0.00 0.00 0.00 29 1021.8
20260902181020 61 177 3.5 7.8 0.00 0.00 0.00 30 1021.8
20260902180523 60 208 0.9 12.2 0.00 0.00 0.00 32 1021.7
20260902180020 61 246 3.5 12.2 0.00 0.00 0.00 31 1021.6
20260902175519 60 97 0.0 3.5 0.00 0.00 0.00 32 1021.7
20260902175018 61 5 0.0 0.9 0.00 0.00 0.00 32 1021.7
20260902174524 61 360 0.0 0.9 0.00 0.00 0.00 32 1021.7
20260902174017 60 355 0.0 0.9 0.00 0.00 0.00 32 1021.6
20260902173517 60 29 0.0 0.0 0.00 0.00 0.00 32 1021.6
20260902173016 60 28 0.0 0.0 0.00 0.00 0.00 33 1021.6
20260902172522 60 328 0.0 0.0 0.00 0.00 0.00 32 1021.6
20260902172017 60 331 0.0 0.0 0.00 0.00 0.00 33 1021.6
20260902171517 59 327 0.0 0.0 0.00 0.00 0.00 32 1021.7
20260902171016 59 327 0.0 0.0 0.00 0.00 0.00 33 1021.6
20260902170517 59 319 0.0 0.0 0.00 0.00 0.00 34 1021.6
20260902170015 59 323 0.0 0.0 0.00 0.00 0.00 34 1021.5
20260902165513 58 301 0.0 0.0 0.00 0.00 0.00 34 1021.4
20260902165012 58 306 0.0 0.9 0.00 0.00 0.00 34 1021.3
20260902164521 58 285 0.0 0.9 0.00 0.00 0.00 34 1021.3
20260902164010 58 311 0.0 0.0 0.00 0.00 0.00 34 1021.3
20260902163512 58 293 0.0 3.5 0.00 0.00 0.00 34 1021.2
20260902163010 58 327 0.0 3.5 0.00 0.00 0.00 34 1021.2
20260902162509 58 323 0.0 1.7 0.00 0.00 0.00 34 1021.1
20260902162009 58 338 0.0 1.7 0.00 0.00 0.00 34 1021.0
20260902161521 58 347 0.0 1.7 0.00 0.00 0.00 34 1021.0
20260902161009 58 346 0.0 0.0 0.00 0.00 0.00 34 1021.0
20260902160511 58 330 0.0 0.0 0.00 0.00 0.00 35 1021.2
20260902160009 58 5 0.0 1.7 0.00 0.00 0.00 35 1021.2
20260902155508 58 350 0.0 1.7 0.00 0.00 0.00 36 1021.2
20260902155009 57 5 0.0 3.5 0.00 0.00 0.00 35 1021.2
20260902154514 57 348 0.9 6.1 0.00 0.00 0.00 35 1021.1
20260902154006 57 342 0.0 7.8 0.00 0.00 0.00 36 1021.2
20260902153506 57 306 0.0 4.3 0.00 0.00 0.00 36 1021.2
20260902153006 57 304 0.0 4.3 0.00 0.00 0.00 36 1021.2
20260902152505 57 292 0.0 6.1 0.00 0.00 0.00 36 1021.2
20260902152006 56 271 1.7 6.1 0.00 0.00 0.00 36 1021.2
20260902151504 56 297 0.0 7.8 0.00 0.00 0.00 36 1021.1
20260902151004 56 286 1.7 7.8 0.00 0.00 0.00 36 1021.1
20260902150505 56 319 0.0 2.6 0.00 0.00 0.00 37 1021.0
20260902150002 56 9 0.0 4.3 0.00 0.00 0.00 37 1020.9
20260902145502 56 5 0.0 4.3 0.00 0.00 0.00 36 1020.9
20260902145001 56 23 0.0 6.1 0.00 0.00 0.00 36 1020.8
20260902144602 56 5 0.9 8.7 0.00 0.00 0.00 36 1020.7
20260902144059 56 340 3.5 9.6 0.00 0.00 0.00 36 1020.5
20260902143601 56 277 3.5 9.6 0.00 0.00 0.00 36 1020.4
20260902143059 56 288 0.9 8.7 0.00 0.00 0.00 36 1020.4
20260902142558 56 279 0.9 9.6 0.00 0.00 0.00 36 1020.5
20260902142058 56 300 4.3 10.4 0.00 0.00 0.00 35 1020.4
20260902141557 56 278 5.2 10.4 0.00 0.00 0.00 35 1020.2
20260902141059 55 292 3.5 7.8 0.00 0.00 0.00 36 1020.2
20260902140600 55 251 1.7 7.0 0.00 0.00 0.00 36 1020.2
20260902140106 54 244 0.9 3.5 0.00 0.00 0.00 36 1020.2
20260902135556 53 350 0.0 0.0 0.00 0.00 0.00 37 1020.1
20260902135055 53 45 0.0 1.7 0.00 0.00 0.00 37 1020.3
20260902134555 54 53 0.0 4.3 0.00 0.00 0.00 36 1020.1
20260902134053 54 39 0.9 3.5 0.00 0.00 0.00 36 1020.0
20260902133553 54 105 0.0 0.9 0.00 0.00 0.00 34 1019.8
20260902133102 54 227 0.0 0.0 0.00 0.00 0.00 34 1019.7
20260902132552 55 297 0.0 7.0 0.00 0.00 0.00 34 1019.7
20260902132052 55 282 0.9 7.0 0.00 0.00 0.00 35 1019.7
20260902131559 54 275 0.0 7.0 0.00 0.00 0.00 35 1019.6
20260902131055 54 265 2.6 7.0 0.00 0.00 0.00 35 1019.5
20260902130552 53 288 2.6 7.0 0.00 0.00 0.00 36 1019.4
20260902130052 53 242 0.9 5.2 0.00 0.00 0.00 36 1019.5
20260902125549 53 250 0.0 0.9 0.00 0.00 0.00 36 1019.5
20260902125049 54 74 0.0 1.7 0.00 0.00 0.00 35 1019.7
20260902124551 55 74 0.0 1.7 0.00 0.00 0.00 34 1019.6
20260902124047 55 39 0.0 6.1 0.00 0.00 0.00 32 1019.5
20260902123547 56 279 0.0 8.7 0.00 0.00 0.00 32 1019.2
20260902123048 56 305 4.3 9.6 0.00 0.00 0.00 32 1019.1
20260902122548 56 271 6.1 10.4 0.00 0.00 0.00 32 1019.1
20260902122047 56 272 7.0 10.4 0.00 0.00 0.00 32 1019.1
20260902121558 56 264 7.0 10.4 0.00 0.00 0.00 32 1019.2
20260902121047 55 274 5.2 9.6 0.00 0.00 0.00 31 1019.2
20260902120549 55 273 5.2 11.3 0.00 0.00 0.00 32 1019.2
20260902120047 54 269 7.0 11.3 0.00 0.00 0.00 31 1019.2
20260902115547 54 277 7.0 9.6 0.00 0.00 0.00 31 1019.2
20260902115044 54 265 5.2 7.8 0.00 0.00 0.00 31 1019.3
20260902114550 54 268 0.0 4.3 0.00 0.00 0.00 32 1019.5
20260902114042 54 25 0.0 4.3 0.00 0.00 0.00 31 1019.6
20260902113541 55 19 1.7 3.5 0.00 0.00 0.00 30 1019.4
20260902113052 56 42 0.9 3.5 0.00 0.00 0.00 29 1019.3
20260902112539 56 52 0.0 13.9 0.00 0.00 0.00 27 1019.1
20260902112038 57 288 7.8 13.9 0.00 0.00 0.00 28 1018.8